Showing default

IRIDIUM 146, 43254

Orbit data source: Space-Track

IRIDIUM 146, 43254 is a payload satellite owned by Iridium (US) in LEO that was launched on Fri, 30 Mar 2018 UTC via an FALCON 9 launch vehicle from the Air Force Western Test Range (AFWTR). Payloads include a variety of satellites, spacecraft, and rockets equipped with specific instruments for various scientific and technological missions. These include communications satellites like Starlink; space stations such as the ISS; scientific satellites like the Hubble; Earth observation satellites from companies like Planet Labs, Umbra, and HawkEye 360; GPS; miniature CubeSats for education and research; and military/defense satellites.

Loading next visibility...
IRIDIUM 146 details
Identifier
43254, 2018-030F
Orbit
LEO
Last TLE update9 hours ago
Origin
Flag of USIridium (US)
ManufacturerOATK SSG Gilbert
MissionOperational Commercial Communications
Bus & MotorELITEBUS, Unknown motor
Mass860 kg wet, 700 kg dry
Launch date (UTC)
2018-03-30 (7 years ago)
Launch vehicle
FALCON 9
Launch site
Air Force Western Test Range (AFWTR)
Object type
Payload
Rocket body
Debris
Shape & HBRTrap Box + 2 Pan, 9.4 m
Radar Cross Section14.423 m², Large (>1 m²)

Expand to show TLE details & history

TLE from 9 hours ago
0 IRIDIUM 146
1 43254U 18030F   24361.18846401  .00000023  00000-0  12047-5 0  9992
2 43254  86.3993 155.3243 0001735 103.4477 256.6913 14.34217031353024
Epoch: 2024-12-26T04:31Z
Definitive object data (Epoch: 2024-12-26T04:31:23.29Z)
Latitude0.00005°
Longitude-7.69418°
Altitude781.007 km
Speed7.463 km/s
True Right ascension10h 21m 17s
True Declination0° 00' 00"
Sunlit
Object was in full shadow at TLE epoch
Visualization TLE readout
Latitude65.49173°
Longitude0.04609°
Altitude788.066 km
Speed7.466 km/s
Apparent Right ascension02h 33m 50s
Apparent Declination43° 36' 23"
Sunlit
Object is in full shadow
Visualization observer readout
Local Sidereal Time12:33:38
Azimuth338.726° N
Elevation-2.188°
Doppler factor1
Orbital elements
Apogee altitude775.875 km
Perigee altitude773.393 km
Semi-major axis7,152.771 km
Eccentricity0.0001735
Inclination86.3993°
RAAN155.3243°
Arg. of periapsis103.4477°
True anomaly256.67195°
Mean anomaly256.6913°
Eccentric anomaly256.68163°
Mean motion3.58783 °/min
BSTAR0.0000012047
Orbital period100.34 mins
Loading maneuver chart data...
Loading historical data...
Loading historical data...
Loading historical data...
Loading historical data...
Loading historical data...
Loading historical data...
Loading historical data...

IRIDIUM 146 Visibility forecast

Observer location: undefined°, undefined

Span
Click to sort rows by Start time (UTC) header in descending order
Start Az.
Max El. time (UTC)
Max El. Az.
Max El.
End time (UTC)
End Az.
8 mins2024-12-26 21:51:00.541Z24.101° NE2024-12-26 21:55:00.541Z84.464° E26.417°2024-12-26 21:59:00.541Z138.987° SSE
6 mins2024-12-26 23:33:00.541Z318.306° NNW2024-12-26 23:35:00.541Z285.369° WNW25.654°2024-12-26 23:39:00.541Z223.631° SW
9 mins2024-12-27 10:47:00.541Z167.157° S2024-12-27 10:51:00.541Z82.615° E42.105°2024-12-27 10:56:00.541Z8.834° NNE
|